Location: La Brionne
(46.1728°N, 1.7849°E)
Time: 18:44:58
(UTC+00:00)

Cosmos 1544 Rocket - Pass Details

Date: 26 October 2021
Orbit: 603 x 632 km, 82.5° (Epoch: 27 November)

Event Time Altitude Azimuth Distance (km) Brightness Sun altitude
Rises 03:42:23 0° 3° (N) 2,908 7.2 -28.7°
Reaches altitude 10° 03:45:09 10° 21° (NNE) 1,991 6.5 -28.2°
Maximum altitude 03:48:25 20° 69° (ENE) 1,428 6.1 -27.7°
Drops below altitude 10° 03:51:40 10° 117° (ESE) 1,967 6.8 -27.1°
Sets 03:54:22 0° 135° (SE) 2,861 7.4 -26.6°
